TimeCST,TemperatureF,Dew PointF,Humidity,Sea Level PressureIn,VisibilityMPH,Wind Direction,Wind SpeedMPH,Gust SpeedMPH,PrecipitationIn,Events,Conditions,WindDirDegrees,DateUTC
12:00 AM,-50,,,30.02,15,Calm,Calm,,,Snow,Snow,,2014-02-23 06:00:00
12:00 AM,-49.0,-9999,N/A,30.02,15.0,Calm,Calm,-,N/A,,Clear,0,2014-02-23 06:00:00
1:00 AM,-50.8,-9999,N/A,30.01,15.0,South,2.3,-,N/A,,Clear,170,2014-02-23 07:00:00
2:00 AM,-52.6,-9999,N/A,30.01,7.0,Calm,Calm,-,N/A,,Clear,0,2014-02-23 08:00:00
3:00 AM,-52.6,-9999,N/A,30.01,7.0,Calm,Calm,-,N/A,,Clear,0,2014-02-23 09:00:00
4:00 AM,-54.4,-9999,N/A,30.01,15.0,Calm,Calm,-,N/A,,Clear,0,2014-02-23 10:00:00
5:00 AM,-54.4,-9999,N/A,30.01,15.0,Calm,Calm,-,N/A,,Clear,0,2014-02-23 11:00:00
6:00 AM,-54,,,30.01,15,Calm,Calm,,,Snow,Snow,,2014-02-23 12:00:00
6:00 AM,-54.4,-9999,N/A,30.01,7.0,Calm,Calm,-,N/A,,Partly Cloudy,0,2014-02-23 12:00:00
7:00 AM,-54.4,-9999,N/A,30.01,5.0,Calm,Calm,-,N/A,,Ice Crystals,0,2014-02-23 13:00:00
8:00 AM,-54.4,-9999,N/A,30.01,6.0,Calm,Calm,-,N/A,,Ice Crystals,0,2014-02-23 14:00:00
9:00 AM,-52.6,-9999,N/A,30.00,7.0,Calm,Calm,-,N/A,,Partly Cloudy,0,2014-02-23 15:00:00
10:00 AM,-54.4,-9999,N/A,30.00,7.0,Calm,Calm,-,N/A,,Partly Cloudy,0,2014-02-23 16:00:00
11:00 AM,-56.2,-9999,N/A,29.99,15.0,Calm,Calm,-,N/A,,Partly Cloudy,0,2014-02-23 17:00:00
12:00 PM,-55,,,30.00,15,Calm,Calm,,,Snow,Snow,,2014-02-23 18:00:00
12:00 PM,-54.4,-9999,N/A,30.00,15.0,Calm,Calm,-,N/A,,Partly Cloudy,0,2014-02-23 18:00:00
1:00 PM,-56.2,-9999,N/A,30.00,15.0,SE,2.3,-,N/A,,Partly Cloudy,130,2014-02-23 19:00:00
2:00 PM,-54.4,-9999,N/A,30.00,15.0,Calm,Calm,-,N/A,,Partly Cloudy,0,2014-02-23 20:00:00
3:00 PM,-52.6,-9999,N/A,30.00,7.0,Calm,Calm,-,N/A,,Clear,0,2014-02-23 21:00:00
4:00 PM,-56.2,-9999,N/A,30.00,7.0,Calm,Calm,-,N/A,,Clear,0,2014-02-23 22:00:00
4:43 PM,-9999,-9999,N/A,-9999,7.0,Calm,Calm,-,N/A,,Clear,0,2014-02-23 22:43:00
5:00 PM,-52.6,-9999,N/A,30.00,15.0,Calm,Calm,-,N/A,,Clear,0,2014-02-23 23:00:00
5:51 PM,-9999,-9999,N/A,-9999,15.0,Calm,Calm,-,N/A,,Clear,0,2014-02-23 23:51:00
6:00 PM,-56,,,30.01,15,Calm,Calm,,,Snow,Snow,,2014-02-24 00:00:00
6:00 PM,-56.2,-9999,N/A,30.01,15.0,Calm,Calm,-,N/A,,Clear,0,2014-02-24 00:00:00
7:00 PM,-56.2,-9999,N/A,29.99,15.0,Calm,Calm,-,N/A,,Clear,0,2014-02-24 01:00:00
8:00 PM,-52.6,-9999,N/A,29.99,15.0,Calm,Calm,-,N/A,,Clear,0,2014-02-24 02:00:00
9:00 PM,-52.6,-9999,N/A,29.97,15.0,Calm,Calm,-,N/A,,Clear,0,2014-02-24 03:00:00